sat.trackr.live / text

‹ back to catalog

STARLINK-3126

NORAD 49444 · 2021-104AN

PAYLOAD ACTIVE UNKNOWN

§ Identity

Operator
Country
US
Launch date
2021-11-13
Launch site
AFETR
Launch vehicle
Mass (kg)
RCS (m²)

Purposes: comms

External: N2YO · Heavens-Above · Gunter

§ Orbital elements

Epoch: 2026-09-20T03:37:57.383040Z

Period
94.01 min
Inclination
53.1610°
Eccentricity
0.0001026
Mean motion
15.31707096 rev/d
Perigee alt
470.0 km
Apogee alt
471.4 km
Semi-major
6,848.9 km
B*
2.9628e-5
RAAN
50.4840°
Arg perigee
85.6930°
Mean anomaly
274.4188°
Rev number
26,834

§ Raw data

STARLINK-31261 49444U 21104AN  26263.15135860  .00000555  00000+0  29628-4 0  99962 49444  53.1610  50.4840 0001026  85.6930 274.4188 15.31707096268340

JSON: /api/v1/satellites/49444 · /tle

For live sub-satellite position, see the globe view (requires WebGL).

§ Visibility from observer

Set your observer location to see the next 7 days of passes ≥ 10°. The values pass through the URL so the page stays shareable.

No JS? Fill the form by hand. The geolocation button needs JavaScript.